Weather History for Torrington, WY

Change the Weather History Date:

Sunday, December 16, 2012

  Actual Average Record
Temperature  
Mean Temperature 31 °F 26 °F  
Max Temperature 43 °F 39 °F 55 °F (2002)
Min Temperature 19 °F 14 °F -5 °F (2008)
Degree Days  
Heating Degree Days 34 38  
Month to date heating degree days 467 597  
Since 1 July heating degree days 1810 2180  
Cooling Degree Days 0 0  
Month to date cooling degree days 0 0  
Year to date cooling degree days 1021 678  
Moisture  
Dew Point 17 °F    
Average Humidity 62    
Maximum Humidity 92    
Minimum Humidity 32    
Precipitation  
Precipitation T in 0.01 in 0.00 in (2014)
Month to date precipitation T 0.21  
Year to date precipitation 7.00 14.05  
Sea Level Pressure  
Sea Level Pressure 29.74 in    
Wind  
Wind Speed 12 mph (WSW)    
Max Wind Speed 32 mph    
Max Gust Speed 40 mph    
Visibility 10 miles    
Events      
T = Trace of Precipitation, MM = Missing Value Source: NWS Daily Summary

Daily Weather History Graph

Daily Weather History Graph

Search for Another Location

Airport:

Trip Planner

Search our weather history database for the weather conditions in past years. The results will help you decide how hot, cold, wet, or windy it might be!

Date:

Astronomy

Dec. 16, 2012 Rise Set
Actual Time 7:18 AM MST 4:26 PM MST
Civil Twilight 6:47 AM MST 4:58 PM MST
Nautical Twilight 6:11 AM MST 5:33 PM MST
Astronomical Twilight 5:37 AM MST 6:07 PM MST
Moon 9:50 AM MST (12/16) 8:46 PM MST (12/16)
Length of Visible Light 10h 10m
Length of Day
9h 07m
Waxing Crescent, 16% of the Moon is Illuminated
Dec 16
Waxing Crescent
Dec 19
First Quarter
Dec 28
Full
Jan 4
Last Quarter
Jan 11
New

Hourly Weather History & Observations

Time (MST) Temp. Windchill Dew Point Humidity Pressure Visibility Wind Dir Wind Speed Gust Speed Precip Events Conditions
12:53 AM 25.0 °F 19.3 °F 21.0 °F 85% 29.73 in 10.0 mi South 4.6 mph - N/A   Mostly Cloudy
1:53 AM 27.0 °F 19.5 °F 21.9 °F 81% 29.72 in 10.0 mi SE 6.9 mph - N/A   Overcast
2:53 AM 25.0 °F 18.1 °F 21.0 °F 85% 29.72 in 10.0 mi East 5.8 mph - N/A   Overcast
4:53 AM 21.9 °F 14.5 °F 19.0 °F 89% 29.73 in 10.0 mi East 5.8 mph - N/A   Mostly Cloudy
5:53 AM 21.9 °F 14.5 °F 19.9 °F 92% 29.74 in 10.0 mi ESE 5.8 mph - N/A   Overcast
6:53 AM 21.0 °F 14.6 °F 18.0 °F 88% 29.75 in 10.0 mi SE 4.6 mph - N/A   Partly Cloudy
7:53 AM 26.1 °F 16.8 °F 19.0 °F 75% 29.73 in 10.0 mi SW 9.2 mph - N/A   Scattered Clouds
8:53 AM 33.1 °F 23.0 °F 18.0 °F 54% 29.72 in 10.0 mi WSW 15.0 mph 20.7 mph N/A   Overcast
9:53 AM 39.0 °F 29.3 °F 15.1 °F 38% 29.71 in 10.0 mi WSW 19.6 mph 28.8 mph N/A   Clear
10:04 AM 39.2 °F 29.0 °F 15.8 °F 39% 29.66 in 3.0 mi WSW 21.9 mph 33.4 mph N/A   Haze
10:53 AM 41.0 °F 30.7 °F 14.0 °F 33% 29.70 in 10.0 mi WSW 25.3 mph 34.5 mph N/A   Clear
11:53 AM 43.0 °F 33.8 °F 15.1 °F 32% 29.66 in 10.0 mi West 23.0 mph 36.8 mph N/A   Partly Cloudy
12:53 PM 42.1 °F 31.5 °F 16.0 °F 35% 29.66 in 10.0 mi West 28.8 mph 36.8 mph N/A   Clear
1:53 PM 39.0 °F 30.6 °F 16.0 °F 39% 29.68 in 10.0 mi West 15.0 mph 26.5 mph N/A   Clear
2:53 PM 39.0 °F 28.8 °F 17.1 °F 41% 29.70 in 10.0 mi West 21.9 mph 26.5 mph N/A   Scattered Clouds
3:53 PM 37.9 °F 29.6 °F 16.0 °F 41% 29.73 in 10.0 mi West 13.8 mph - N/A   Mostly Cloudy
4:53 PM 37.0 °F 29.8 °F 18.0 °F 46% 29.75 in 10.0 mi West 10.4 mph - N/A   Overcast
5:53 PM 36.0 °F 25.6 °F 19.9 °F 52% 29.78 in 10.0 mi West 18.4 mph 24.2 mph N/A   Overcast
6:53 PM 36.0 °F 28.0 °F 17.1 °F 46% 29.81 in 10.0 mi WNW 11.5 mph - N/A   Overcast
7:53 PM 34.0 °F 26.6 °F 17.1 °F 50% 29.80 in 10.0 mi West 9.2 mph - 0.00 in   Overcast
8:53 PM 30.0 °F 22.4 °F 17.1 °F 59% 29.79 in 10.0 mi WNW 8.1 mph - N/A   Clear
9:53 PM 28.0 °F 20.8 °F 17.1 °F 63% 29.79 in 10.0 mi WNW 6.9 mph - N/A   Scattered Clouds
10:53 PM 23.0 °F 17.0 °F 15.1 °F 72% 29.81 in 10.0 mi West 4.6 mph - N/A   Clear
11:53 PM 24.1 °F 18.2 °F 15.1 °F 69% 29.78 in 10.0 mi WSW 4.6 mph - N/A   Clear